Location: Redwood Loop Observatory
(43.9900°N, 124.0900°W)
Time: 04:29:18
(UTC-07:00)

Envisat - Visible Passes

Search period start: 20 March 2019 00:00
Search period end: 30 March 2019 00:00
Orbit: 764 x 766 km, 98.2° (Epoch: 19 March)

Date Brightness Start Highest point End Pass type
(mag) Time Alt. Az. Time Alt. Az. Time Alt. Az.
20 Mar 5.9 21:16:18 10° SW 21:19:15 15° W 21:22:13 10° NW visible
21 Mar 4.9 20:37:37 10° SSW 20:42:09 33° W 20:46:44 10° NNW visible
22 Mar 3.4 20:00:12 10° S 20:05:16 72° WSW 20:10:21 10° NNW visible
23 Mar 5.7 21:04:19 10° SW 21:07:55 19° W 21:11:32 10° NW visible
24 Mar 4.4 20:26:06 10° SSW 20:30:53 41° W 20:35:41 10° NNW visible
25 Mar 6.2 21:32:33 10° W 21:33:46 11° W 21:35:00 10° WNW visible
26 Mar 5.4 20:52:31 10° SSW 20:56:36 24° W 21:00:42 10° NW visible
27 Mar 4.0 20:14:41 10° S 20:19:36 52° W 20:24:35 10° NNW visible
28 Mar 5.9 21:19:48 10° WSW 21:22:24 14° W 21:25:01 10° WNW visible
29 Mar 5.0 20:40:51 10° SSW 20:45:17 30° W 20:49:45 10° NW visible
